| time (UTC) | temp F | wind direction | speed MPH | gust MPH | rain 1hr in | rain 24hr in | rain mn in | humidity % | barometer mb |
| 20260507234501 | 69 | 349 | 3.0 | 8.0 | 0.00 | 2.33 | 1.70 | 63 | 1009.9 |
| 20260507234001 | 70 | 282 | 3.0 | 9.0 | 0.00 | 2.33 | 1.70 | 64 | 1009.7 |
| 20260507233503 | 70 | 325 | 3.0 | 13.0 | 0.00 | 2.33 | 1.70 | 64 | 1009.7 |
| 20260507233001 | 70 | 315 | 3.0 | 15.0 | 0.00 | 2.33 | 1.70 | 64 | 1009.5 |
| 20260507232001 | 71 | 300 | 2.0 | 5.0 | 0.00 | 2.33 | 1.70 | 65 | 1009.4 |
| 20260507231501 | 71 | 319 | 2.0 | 4.0 | 0.00 | 2.33 | 1.70 | 65 | 1009.3 |
| 20260507231001 | 71 | 299 | 3.0 | 12.0 | 0.00 | 2.33 | 1.70 | 64 | 1009.4 |
| 20260507230501 | 71 | 292 | 3.0 | 12.0 | 0.00 | 2.33 | 1.70 | 65 | 1009.2 |
| 20260507225501 | 72 | 315 | 3.0 | 11.0 | 0.00 | 2.33 | 1.70 | 63 | 1009.3 |
| 20260507225001 | 72 | 321 | 3.0 | 11.0 | 0.00 | 2.33 | 1.70 | 64 | 1009.3 |
| 20260507224503 | 72 | 299 | 3.0 | 12.0 | 0.00 | 2.33 | 1.70 | 63 | 1009.1 |
| 20260507224001 | 72 | 318 | 4.0 | 12.0 | 0.00 | 2.33 | 1.70 | 65 | 1009.0 |
| 20260507223501 | 73 | 293 | 3.0 | 9.0 | 0.00 | 2.33 | 1.70 | 64 | 1008.9 |
| 20260507223003 | 73 | 323 | 3.0 | 13.0 | 0.00 | 2.33 | 1.70 | 62 | 1008.8 |
| 20260507222501 | 73 | 299 | 4.0 | 12.0 | 0.00 | 2.33 | 1.70 | 62 | 1008.8 |
| 20260507222003 | 74 | 5 | 5.0 | 11.0 | 0.00 | 2.33 | 1.70 | 63 | 1008.6 |
| 20260507221001 | 74 | 302 | 5.0 | 14.0 | 0.00 | 2.33 | 1.70 | 64 | 1008.4 |
| 20260507220501 | 74 | 306 | 4.0 | 11.0 | 0.00 | 2.33 | 1.70 | 62 | 1008.3 |
| 20260507220007 | 74 | 302 | 4.0 | 11.0 | 0.00 | 2.33 | 1.70 | 63 | 1008.4 |
| 20260507215501 | 74 | 263 | 4.0 | 13.0 | 0.00 | 2.33 | 1.70 | 64 | 1008.2 |
| 20260507215001 | 74 | 338 | 4.0 | 12.0 | 0.00 | 2.33 | 1.70 | 63 | 1008.2 |
| 20260507214003 | 75 | 26 | 5.0 | 15.0 | 0.00 | 2.33 | 1.70 | 62 | 1008.1 |
| 20260507213502 | 75 | 169 | 4.0 | 15.0 | 0.00 | 2.33 | 1.70 | 63 | 1008.1 |
| 20260507212003 | 75 | 304 | 4.0 | 14.0 | 0.00 | 2.33 | 1.70 | 63 | 1008.2 |
| 20260507211501 | 75 | 268 | 4.0 | 13.0 | 0.00 | 2.33 | 1.70 | 63 | 1008.2 |
| 20260507211001 | 75 | 274 | 5.0 | 13.0 | 0.00 | 2.33 | 1.70 | 63 | 1008.2 |
| 20260507210502 | 75 | 340 | 5.0 | 11.0 | 0.00 | 2.33 | 1.70 | 65 | 1008.1 |
| 20260507205502 | 75 | 298 | 3.0 | 13.0 | 0.00 | 2.33 | 1.70 | 67 | 1008.0 |
| 20260507205002 | 75 | 298 | 3.0 | 9.0 | 0.00 | 2.33 | 1.70 | 65 | 1008.0 |
| 20260507204504 | 75 | 319 | 4.0 | 9.0 | 0.00 | 2.33 | 1.70 | 65 | 1008.2 |
| 20260507204002 | 75 | 332 | 4.0 | 13.0 | 0.00 | 2.33 | 1.70 | 64 | 1008.2 |
| 20260507203504 | 75 | 275 | 4.0 | 13.0 | 0.00 | 2.33 | 1.70 | 63 | 1008.2 |
| 20260507203002 | 75 | 5 | 3.0 | 10.0 | 0.00 | 2.33 | 1.70 | 64 | 1008.1 |
| 20260507202504 | 75 | 5 | 3.0 | 9.0 | 0.00 | 2.33 | 1.70 | 66 | 1008.2 |
| 20260507201002 | 76 | 309 | 5.0 | 13.0 | 0.00 | 2.33 | 1.70 | 62 | 1008.3 |
| 20260507200504 | 76 | 254 | 3.0 | 11.0 | 0.00 | 2.33 | 1.70 | 63 | 1008.4 |
| 20260507200005 | 76 | 257 | 3.0 | 12.0 | 0.00 | 2.33 | 1.70 | 64 | 1008.3 |
| 20260507195502 | 76 | 240 | 4.0 | 12.0 | 0.00 | 2.33 | 1.70 | 64 | 1008.4 |
| 20260507195004 | 76 | 296 | 5.0 | 19.0 | 0.00 | 2.33 | 1.70 | 60 | 1008.5 |
| 20260507194502 | 77 | 216 | 6.0 | 19.0 | 0.00 | 2.33 | 1.70 | 60 | 1008.5 |
| 20260507194002 | 77 | 280 | 5.0 | 14.0 | 0.00 | 2.33 | 1.70 | 61 | 1008.5 |
| 20260507193502 | 77 | 278 | 4.0 | 14.0 | 0.00 | 2.33 | 1.70 | 63 | 1008.5 |
| 20260507193004 | 77 | 288 | 4.0 | 12.0 | 0.00 | 2.33 | 1.70 | 63 | 1008.5 |
| 20260507192502 | 77 | 285 | 4.0 | 10.0 | 0.00 | 2.33 | 1.70 | 64 | 1008.5 |
| 20260507192002 | 76 | 288 | 3.0 | 9.0 | 0.00 | 2.33 | 1.70 | 63 | 1008.5 |
| 20260507191502 | 77 | 355 | 4.0 | 12.0 | 0.00 | 2.33 | 1.70 | 66 | 1008.5 |
| 20260507191002 | 76 | 340 | 4.0 | 12.0 | 0.00 | 2.33 | 1.70 | 68 | 1008.6 |
| 20260507190006 | 76 | 309 | 5.0 | 13.0 | 0.00 | 2.33 | 1.70 | 67 | 1008.9 |
| 20260507185502 | 76 | 285 | 5.0 | 12.0 | 0.00 | 2.33 | 1.70 | 70 | 1009.0 |
| 20260507185003 | 75 | 305 | 4.0 | 12.0 | 0.00 | 2.33 | 1.70 | 73 | 1009.0 |
| 20260507184502 | 75 | 318 | 3.0 | 8.0 | 0.00 | 2.33 | 1.70 | 73 | 1009.1 |
| 20260507184003 | 75 | 344 | 2.0 | 8.0 | 0.00 | 2.33 | 1.70 | 73 | 1009.1 |
| 20260507183502 | 75 | 331 | 3.0 | 15.0 | 0.00 | 2.33 | 1.70 | 72 | 1009.0 |
| 20260507183002 | 76 | 355 | 4.0 | 15.0 | 0.00 | 2.33 | 1.70 | 71 | 1009.0 |
| 20260507181502 | 75 | 323 | 3.0 | 9.0 | 0.00 | 2.33 | 1.70 | 74 | 1009.1 |
| 20260507181002 | 75 | 302 | 3.0 | 9.0 | 0.00 | 2.33 | 1.70 | 72 | 1009.2 |
| 20260507180502 | 75 | 355 | 3.0 | 12.0 | 0.00 | 2.33 | 1.70 | 73 | 1009.1 |
| 20260507180006 | 75 | 303 | 3.0 | 12.0 | 0.00 | 2.33 | 1.70 | 74 | 1009.2 |
| 20260507175501 | 75 | 273 | 3.0 | 7.0 | 0.00 | 2.33 | 1.70 | 74 | 1009.2 |
| 20260507175001 | 75 | 319 | 3.0 | 9.0 | 0.00 | 2.33 | 1.70 | 76 | 1009.2 |
| 20260507174502 | 75 | 232 | 3.0 | 10.0 | 0.00 | 2.33 | 1.70 | 75 | 1009.2 |
| 20260507174004 | 74 | 289 | 3.0 | 10.0 | 0.00 | 2.33 | 1.70 | 76 | 1009.0 |
| 20260507173002 | 74 | 221 | 3.0 | 11.0 | 0.00 | 2.33 | 1.70 | 77 | 1009.1 |
| 20260507172502 | 74 | 309 | 2.0 | 11.0 | 0.00 | 2.33 | 1.70 | 76 | 1009.0 |
| 20260507172003 | 74 | 355 | 2.0 | 7.0 | 0.00 | 2.33 | 1.70 | 79 | 1009.2 |
| 20260507171502 | 73 | 257 | 2.0 | 9.0 | 0.00 | 2.33 | 1.70 | 82 | 1009.2 |
| 20260507171002 | 72 | 335 | 2.0 | 9.0 | 0.00 | 2.33 | 1.70 | 84 | 1009.3 |
| 20260507170502 | 71 | 280 | 1.0 | 6.0 | 0.00 | 2.33 | 1.70 | 85 | 1009.4 |
| 20260507170005 | 70 | 338 | 1.0 | 3.0 | 0.00 | 2.33 | 1.70 | 82 | 1009.5 |
| 20260507165001 | 71 | 331 | 1.0 | 4.0 | 0.00 | 2.34 | 1.70 | 82 | 1009.3 |
| 20260507164500 | 70 | 261 | 1.0 | 4.0 | 0.00 | 2.34 | 1.70 | 84 | 1009.5 |
| 20260507164002 | 71 | 334 | 2.0 | 6.0 | 0.00 | 2.34 | 1.70 | 83 | 1009.5 |
| 20260507163501 | 71 | 246 | 2.0 | 6.0 | 0.00 | 2.34 | 1.70 | 85 | 1009.6 |
| 20260507163000 | 71 | 196 | 1.0 | 5.0 | 0.00 | 2.34 | 1.70 | 88 | 1009.8 |
| 20260507162502 | 71 | 355 | 2.0 | 5.0 | 0.00 | 2.34 | 1.70 | 87 | 1009.8 |
| 20260507162000 | 71 | 355 | 2.0 | 9.0 | 0.00 | 2.34 | 1.70 | 87 | 1010.1 |
| 20260507161500 | 70 | 308 | 3.0 | 9.0 | 0.00 | 2.34 | 1.70 | 89 | 1010.1 |
| 20260507161000 | 69 | 259 | 2.0 | 9.0 | 0.00 | 2.34 | 1.70 | 89 | 1010.0 |
| 20260507160502 | 69 | 256 | 1.0 | 3.0 | 0.00 | 2.34 | 1.70 | 91 | 1009.9 |
| 20260507160003 | 68 | 350 | 2.0 | 4.0 | 0.00 | 2.34 | 1.70 | 93 | 1009.9 |
| 20260507155500 | 67 | 270 | 1.0 | 6.0 | 0.00 | 2.34 | 1.70 | 94 | 1009.7 |
| 20260507155002 | 67 | 284 | 0.0 | 2.0 | 0.00 | 2.34 | 1.70 | 93 | 1009.9 |
| 20260507154500 | 67 | 319 | 1.0 | 5.0 | 0.00 | 2.34 | 1.70 | 94 | 1010.1 |
| 20260507154000 | 67 | 344 | 1.0 | 5.0 | 0.00 | 2.34 | 1.70 | 94 | 1010.4 |
| 20260507153500 | 67 | 198 | 1.0 | 3.0 | 0.00 | 2.34 | 1.70 | 96 | 1010.4 |
| 20260507153000 | 67 | 321 | 1.0 | 2.0 | 0.00 | 2.34 | 1.70 | 96 | 1010.2 |
| 20260507152500 | 67 | 360 | 1.0 | 7.0 | 0.00 | 2.34 | 1.70 | 98 | 1010.3 |
| 20260507151501 | 66 | 284 | 1.0 | 4.0 | 0.00 | 2.34 | 1.70 | 98 | 1010.7 |
| 20260507150500 | 65 | 355 | 1.0 | 3.0 | 0.00 | 2.34 | 1.70 | 98 | 1010.7 |
| 20260507150005 | 65 | 355 | 2.0 | 7.0 | 0.00 | 2.34 | 1.70 | 98 | 1010.7 |
| 20260507145500 | 66 | 307 | 2.0 | 7.0 | 0.00 | 2.34 | 1.70 | 99 | 1010.7 |
| 20260507145000 | 65 | 9 | 1.0 | 4.0 | 0.00 | 2.34 | 1.70 | 99 | 1010.5 |
| 20260507144002 | 65 | 323 | 1.0 | 5.0 | 0.00 | 2.34 | 1.70 | 99 | 1010.2 |
| 20260507143000 | 65 | 279 | 1.0 | 4.0 | 0.01 | 2.34 | 1.70 | 99 | 1009.9 |
| 20260507142500 | 64 | 288 | 1.0 | 4.0 | 0.03 | 2.34 | 1.70 | 99 | 1009.6 |
| 20260507142002 | 64 | 176 | 0.0 | 1.0 | 0.03 | 2.34 | 1.70 | 99 | 1009.5 |
| 20260507141500 | 64 | 176 | 0.0 | 0.0 | 0.04 | 2.34 | 1.70 | 99 | 1009.4 |
| 20260507141000 | 64 | 176 | 0.0 | 0.0 | 0.05 | 2.34 | 1.70 | 99 | 1009.4 |
| 20260507140500 | 64 | 176 | 0.0 | 0.0 | 0.07 | 2.34 | 1.70 | 99 | 1009.5 |
| 20260507140006 | 64 | 176 | 0.0 | 0.0 | 0.07 | 2.34 | 1.70 | 99 | 1009.8 |
| 20260507135002 | 63 | 176 | 0.0 | 1.0 | 0.11 | 2.34 | 1.70 | 99 | 1009.8 |
| 20260507134501 | 63 | 176 | 0.0 | 2.0 | 0.13 | 2.34 | 1.70 | 99 | 1009.9 |
| 20260507134000 | 63 | 176 | 0.0 | 2.0 | 0.13 | 2.34 | 1.70 | 99 | 1010.1 |
| 20260507133500 | 63 | 231 | 0.0 | 2.0 | 0.13 | 2.34 | 1.70 | 99 | 1010.5 |
| 20260507133002 | 63 | 289 | 0.0 | 2.0 | 0.12 | 2.33 | 1.69 | 99 | 1010.6 |
| 20260507132500 | 63 | 289 | 0.0 | 1.0 | 0.10 | 2.31 | 1.67 | 99 | 1010.7 |
| 20260507132000 | 63 | 289 | 0.0 | 2.0 | 0.10 | 2.31 | 1.67 | 99 | 1010.8 |
| 20260507131500 | 63 | 289 | 0.0 | 2.0 | 0.09 | 2.30 | 1.66 | 99 | 1010.7 |
| 20260507130500 | 63 | 289 | 0.0 | 1.0 | 0.06 | 2.27 | 1.63 | 99 | 1010.7 |
| 20260507130005 | 63 | 289 | 1.0 | 5.0 | 0.05 | 2.26 | 1.62 | 99 | 1010.8 |
| 20260507125500 | 63 | 304 | 1.0 | 5.0 | 0.03 | 2.24 | 1.60 | 99 | 1011.0 |
| 20260507124500 | 63 | 190 | 0.0 | 0.0 | 0.01 | 2.21 | 1.57 | 99 | 1010.5 |
| 20260507124002 | 63 | 190 | 0.0 | 0.0 | 0.01 | 2.21 | 1.57 | 99 | 1010.0 |
| 20260507123500 | 63 | 190 | 0.0 | 0.0 | 0.02 | 2.21 | 1.57 | 99 | 1009.5 |
| 20260507123000 | 63 | 190 | 0.0 | 0.0 | 0.03 | 2.21 | 1.57 | 99 | 1010.0 |
| 20260507122002 | 62 | 190 | 0.0 | 0.0 | 0.07 | 2.21 | 1.57 | 99 | 1010.1 |
| 20260507121500 | 62 | 190 | 0.0 | 0.0 | 0.11 | 2.21 | 1.57 | 99 | 1010.3 |
| 20260507120500 | 62 | 190 | 0.0 | 1.0 | 0.17 | 2.21 | 1.57 | 99 | 1010.5 |
| 20260507120005 | 62 | 190 | 0.0 | 1.0 | 0.19 | 2.21 | 1.57 | 98 | 1010.5 |
| 20260507115500 | 62 | 190 | 1.0 | 2.0 | 0.31 | 2.21 | 1.57 | 99 | 1010.4 |
| 20260507115000 | 62 | 274 | 1.0 | 2.0 | 0.33 | 2.21 | 1.57 | 98 | 1010.4 |
| 20260507114503 | 62 | 272 | 1.0 | 2.0 | 0.32 | 2.20 | 1.56 | 98 | 1010.5 |
| 20260507114001 | 62 | 112 | 0.0 | 3.0 | 0.32 | 2.20 | 1.56 | 98 | 1009.9 |
| 20260507113500 | 62 | 112 | 1.0 | 3.0 | 0.31 | 2.19 | 1.55 | 98 | 1009.6 |
| 20260507113000 | 62 | 96 | 0.0 | 2.0 | 0.30 | 2.18 | 1.54 | 98 | 1009.9 |
| 20260507112502 | 62 | 104 | 0.0 | 2.0 | 0.28 | 2.16 | 1.52 | 98 | 1010.7 |
| 20260507112000 | 62 | 355 | 0.0 | 2.0 | 0.27 | 2.14 | 1.50 | 98 | 1011.2 |
| 20260507111500 | 62 | 355 | 1.0 | 2.0 | 0.23 | 2.10 | 1.46 | 99 | 1010.8 |
| 20260507111000 | 62 | 355 | 1.0 | 2.0 | 0.18 | 2.05 | 1.41 | 99 | 1011.2 |
| 20260507110003 | 63 | 355 | 0.0 | 1.0 | 0.15 | 2.01 | 1.37 | 99 | 1010.5 |
| 20260507105501 | 62 | 355 | 1.0 | 2.0 | 0.07 | 1.90 | 1.26 | 99 | 1010.7 |
| 20260507104001 | 62 | 355 | 0.0 | 0.0 | 0.11 | 1.88 | 1.24 | 99 | 1009.8 |
| 20260507103501 | 62 | 355 | 0.0 | 1.0 | 0.11 | 1.88 | 1.24 | 99 | 1009.8 |
| 20260507103001 | 62 | 355 | 0.0 | 1.0 | 0.11 | 1.88 | 1.24 | 99 | 1009.9 |
| 20260507102001 | 62 | 355 | 0.0 | 0.0 | 0.10 | 1.87 | 1.23 | 99 | 1010.1 |
| 20260507101503 | 62 | 355 | 0.0 | 0.0 | 0.10 | 1.87 | 1.23 | 98 | 1010.1 |
| 20260507101001 | 62 | 355 | 0.0 | 0.0 | 0.10 | 1.87 | 1.23 | 99 | 1010.2 |
| 20260507100500 | 62 | 355 | 0.0 | 2.0 | 0.09 | 1.86 | 1.22 | 99 | 1010.2 |
| 20260507100005 | 62 | 355 | 1.0 | 2.0 | 0.08 | 1.85 | 1.21 | 99 | 1010.3 |
| 20260507095459 | 62 | 355 | 1.0 | 3.0 | 0.05 | 1.82 | 1.18 | 98 | 1010.7 |
| 20260507095000 | 62 | 355 | 1.0 | 3.0 | 0.01 | 1.78 | 1.14 | 98 | 1010.7 |
| 20260507094500 | 62 | 234 | 0.0 | 1.0 | 0.03 | 1.78 | 1.14 | 98 | 1010.4 |
| 20260507094001 | 62 | 234 | 0.0 | 2.0 | 0.02 | 1.77 | 1.13 | 98 | 1010.0 |
| 20260507093459 | 62 | 183 | 0.0 | 2.0 | 0.02 | 1.77 | 1.13 | 98 | 1010.0 |
| 20260507093000 | 62 | 143 | 0.0 | 1.0 | 0.03 | 1.77 | 1.13 | 98 | 1010.1 |
| 20260507092459 | 62 | 143 | 0.0 | 1.0 | 0.03 | 1.77 | 1.13 | 98 | 1009.9 |
| 20260507091459 | 62 | 170 | 0.0 | 1.0 | 0.08 | 1.77 | 1.13 | 98 | 1010.1 |
| 20260507091000 | 62 | 198 | 1.0 | 3.0 | 0.12 | 1.77 | 1.13 | 98 | 1010.2 |
| 20260507090005 | 63 | 208 | 1.0 | 4.0 | 0.19 | 1.77 | 1.13 | 98 | 1009.7 |
| 20260507085459 | 63 | 316 | 0.0 | 1.0 | 0.23 | 1.77 | 1.13 | 98 | 1010.0 |
| 20260507084959 | 63 | 316 | 0.0 | 2.0 | 0.26 | 1.77 | 1.13 | 98 | 1010.1 |
| 20260507084459 | 63 | 316 | 1.0 | 2.0 | 0.26 | 1.75 | 1.11 | 98 | 1010.5 |
| 20260507084001 | 63 | 316 | 1.0 | 2.0 | 0.28 | 1.75 | 1.11 | 98 | 1010.8 |
| 20260507082959 | 63 | 316 | 1.0 | 3.0 | 0.32 | 1.74 | 1.10 | 98 | 1011.0 |
| 20260507082500 | 63 | 280 | 1.0 | 3.0 | 0.34 | 1.74 | 1.10 | 98 | 1010.6 |
| 20260507082001 | 63 | 170 | 0.0 | 2.0 | 0.35 | 1.72 | 1.08 | 98 | 1009.8 |
| 20260507080959 | 63 | 284 | 0.0 | 1.0 | 0.31 | 1.65 | 1.01 | 98 | 1011.1 |
| 20260507080459 | 63 | 284 | 0.0 | 1.0 | 0.28 | 1.60 | 0.96 | 98 | 1011.4 |
| 20260507080004 | 63 | 284 | 0.0 | 1.0 | 0.27 | 1.57 | 0.93 | 98 | 1011.4 |
| 20260507075459 | 63 | 284 | 0.0 | 1.0 | 0.25 | 1.54 | 0.90 | 98 | 1011.4 |
| 20260507074959 | 63 | 284 | 0.0 | 1.0 | 0.24 | 1.51 | 0.87 | 98 | 1011.5 |
| 20260507074459 | 63 | 284 | 0.0 | 1.0 | 0.26 | 1.49 | 0.85 | 98 | 1011.3 |
| 20260507073459 | 63 | 284 | 0.0 | 2.0 | 0.32 | 1.46 | 0.82 | 98 | 1011.2 |
| 20260507072959 | 63 | 284 | 1.0 | 3.0 | 0.30 | 1.42 | 0.78 | 98 | 1011.1 |
| 20260507072459 | 63 | 284 | 1.0 | 3.0 | 0.28 | 1.39 | 0.75 | 98 | 1011.3 |
| 20260507072001 | 63 | 284 | 0.0 | 1.0 | 0.29 | 1.37 | 0.73 | 98 | 1011.0 |
| 20260507071459 | 63 | 284 | 0.0 | 2.0 | 0.29 | 1.36 | 0.72 | 98 | 1011.2 |
| 20260507070959 | 63 | 284 | 0.0 | 2.0 | 0.30 | 1.34 | 0.70 | 98 | 1011.1 |
| 20260507070459 | 63 | 284 | 0.0 | 0.0 | 0.29 | 1.32 | 0.68 | 98 | 1010.8 |
| 20260507065459 | 63 | 284 | 0.0 | 1.0 | 0.27 | 1.29 | 0.65 | 98 | 1010.9 |
| 20260507064501 | 63 | 284 | 0.0 | 2.0 | 0.20 | 1.22 | 0.58 | 98 | 1011.5 |
| 20260507063959 | 63 | 284 | 0.0 | 2.0 | 0.15 | 1.17 | 0.53 | 98 | 1011.7 |
| 20260507063459 | 63 | 284 | 0.0 | 2.0 | 0.12 | 1.14 | 0.50 | 98 | 1011.7 |
| 20260507062501 | 63 | 284 | 1.0 | 3.0 | 0.11 | 1.11 | 0.47 | 98 | 1012.1 |
| 20260507061459 | 63 | 279 | 1.0 | 3.0 | 0.15 | 1.07 | 0.43 | 98 | 1012.6 |
| 20260507060501 | 63 | 274 | 0.0 | 0.0 | 0.14 | 1.03 | 0.39 | 98 | 1011.9 |
| 20260507060005 | 63 | 274 | 0.0 | 0.0 | 0.17 | 1.03 | 0.39 | 98 | 1011.8 |
| 20260507055459 | 63 | 274 | 0.0 | 1.0 | 0.18 | 1.02 | 0.38 | 98 | 1012.0 |
| 20260507054959 | 63 | 274 | 0.0 | 2.0 | 0.20 | 1.02 | 0.38 | 98 | 1012.0 |
| 20260507054459 | 63 | 274 | 0.0 | 1.0 | 0.21 | 1.02 | 0.38 | 98 | 1012.6 |
| 20260507054001 | 63 | 274 | 0.0 | 1.0 | 0.26 | 1.02 | 0.38 | 98 | 1012.4 |
| 20260507053459 | 63 | 276 | 0.0 | 0.0 | 0.30 | 1.02 | 0.38 | 98 | 1012.7 |
| 20260507052959 | 63 | 276 | 1.0 | 4.0 | 0.33 | 1.01 | 0.37 | 98 | 1013.1 |
| 20260507052500 | 63 | 276 | 1.0 | 4.0 | 0.32 | 1.00 | 0.36 | 98 | 1013.1 |
| 20260507052000 | 63 | 174 | 1.0 | 2.0 | 0.31 | 0.98 | 0.34 | 98 | 1013.0 |
| 20260507051459 | 63 | 67 | 1.0 | 2.0 | 0.26 | 0.92 | 0.28 | 98 | 1013.4 |
| 20260507051000 | 63 | 330 | 1.0 | 2.0 | 0.25 | 0.90 | 0.26 | 98 | 1013.9 |
| 20260507050459 | 63 | 346 | 1.0 | 2.0 | 0.25 | 0.89 | 0.25 | 98 | 1013.2 |
| 20260507050003 | 63 | 346 | 1.0 | 2.0 | 0.21 | 0.85 | 0.21 | 98 | 1013.0 |
| 20260507045500 | 63 | 339 | 1.0 | 2.0 | 0.20 | 0.84 | 0.20 | 98 | 1013.4 |
| 20260507044959 | 63 | 56 | 1.0 | 2.0 | 0.18 | 0.82 | 0.18 | 98 | 1012.8 |
| 20260507044001 | 63 | 101 | 1.0 | 2.0 | 0.12 | 0.76 | 0.12 | 98 | 1013.0 |
| 20260507043500 | 63 | 317 | 1.0 | 2.0 | 0.08 | 0.72 | 0.08 | 98 | 1013.3 |
| 20260507041500 | 63 | 198 | 0.0 | 2.0 | 0.02 | 0.66 | 0.02 | 97 | 1012.7 |
| 20260507041001 | 63 | 197 | 0.0 | 1.0 | 0.01 | 0.65 | 0.01 | 97 | 1012.4 |
| 20260507040500 | 63 | 197 | 0.0 | 0.0 | 0.00 | 0.64 | 0.00 | 97 | 1012.3 |
| 20260507040009 | 63 | 197 | 0.0 | 0.0 | 0.00 | 0.64 | 0.00 | 97 | 1012.5 |
| 20260507035502 | 63 | 197 | 0.0 | 1.0 | 0.00 | 0.64 | 0.64 | 97 | 1012.4 |
| 20260507035002 | 63 | 197 | 0.0 | 2.0 | 0.00 | 0.64 | 0.64 | 97 | 1012.6 |
| 20260507034504 | 63 | 197 | 0.0 | 2.0 | 0.00 | 0.64 | 0.64 | 97 | 1012.6 |
| 20260507033502 | 63 | 204 | 0.0 | 1.0 | 0.00 | 0.64 | 0.64 | 97 | 1012.7 |
| 20260507033002 | 63 | 204 | 0.0 | 0.0 | 0.00 | 0.64 | 0.64 | 97 | 1012.8 |
| 20260507032504 | 63 | 204 | 0.0 | 1.0 | 0.00 | 0.64 | 0.64 | 97 | 1012.8 |
| 20260507031502 | 63 | 204 | 0.0 | 1.0 | 0.00 | 0.64 | 0.64 | 96 | 1012.8 |
| 20260507030501 | 63 | 204 | 0.0 | 1.0 | 0.01 | 0.64 | 0.64 | 97 | 1013.0 |
| 20260507030007 | 63 | 204 | 0.0 | 2.0 | 0.01 | 0.64 | 0.64 | 96 | 1012.7 |
| 20260507025502 | 63 | 204 | 1.0 | 3.0 | 0.01 | 0.64 | 0.64 | 96 | 1012.3 |
| 20260507024502 | 63 | 188 | 1.0 | 4.0 | 0.01 | 0.64 | 0.64 | 96 | 1012.2 |
| 20260507024003 | 63 | 200 | 3.0 | 5.0 | 0.02 | 0.64 | 0.64 | 96 | 1012.5 |
| 20260507023501 | 63 | 203 | 2.0 | 5.0 | 0.02 | 0.64 | 0.64 | 96 | 1012.2 |
| 20260507023002 | 63 | 219 | 1.0 | 3.0 | 0.03 | 0.64 | 0.64 | 96 | 1012.7 |
| 20260507022502 | 63 | 265 | 0.0 | 2.0 | 0.03 | 0.64 | 0.64 | 96 | 1012.8 |
| 20260507022004 | 63 | 299 | 0.0 | 1.0 | 0.04 | 0.64 | 0.64 | 96 | 1013.0 |
| 20260507021502 | 63 | 323 | 0.0 | 1.0 | 0.06 | 0.64 | 0.64 | 96 | 1013.1 |
| 20260507021002 | 63 | 323 | 0.0 | 2.0 | 0.07 | 0.64 | 0.64 | 96 | 1013.1 |
| 20260507020502 | 64 | 79 | 1.0 | 2.0 | 0.08 | 0.63 | 0.63 | 95 | 1012.4 |
| 20260507020006 | 64 | 141 | 1.0 | 2.0 | 0.15 | 0.63 | 0.63 | 95 | 1013.0 |
| 20260507015502 | 64 | 141 | 0.0 | 1.0 | 0.39 | 0.63 | 0.63 | 95 | 1013.3 |
| 20260507015004 | 64 | 141 | 0.0 | 1.0 | 0.55 | 0.63 | 0.63 | 95 | 1013.7 |
| 20260507014502 | 64 | 141 | 0.0 | 2.0 | 0.60 | 0.63 | 0.63 | 95 | 1014.0 |
| 20260507014005 | 64 | 141 | 1.0 | 2.0 | 0.59 | 0.62 | 0.62 | 96 | 1014.0 |
| 20260507013501 | 64 | 95 | 0.0 | 2.0 | 0.59 | 0.62 | 0.62 | 96 | 1014.1 |
| 20260507012503 | 64 | 95 | 0.0 | 1.0 | 0.58 | 0.61 | 0.61 | 95 | 1014.0 |
| 20260507011504 | 64 | 355 | 0.0 | 2.0 | 0.55 | 0.58 | 0.58 | 95 | 1014.3 |
| 20260507010005 | 64 | 97 | 2.0 | 5.0 | 0.42 | 0.44 | 0.44 | 95 | 1013.3 |
| 20260507005504 | 64 | 283 | 2.0 | 5.0 | 0.22 | 0.24 | 0.24 | 95 | 1014.9 |
| 20260507004003 | 65 | 301 | 1.0 | 3.0 | 0.01 | 0.03 | 0.03 | 94 | 1011.9 |
| 20260507003503 | 65 | 14 | 1.0 | 3.0 | 0.01 | 0.03 | 0.03 | 93 | 1011.1 |
| 20260507003005 | 65 | 49 | 1.0 | 3.0 | 0.01 | 0.03 | 0.03 | 93 | 1010.9 |
| 20260507002503 | 65 | 95 | 1.0 | 2.0 | 0.01 | 0.03 | 0.03 | 93 | 1010.8 |
| 20260507002002 | 65 | 217 | 0.0 | 1.0 | 0.02 | 0.03 | 0.03 | 93 | 1011.5 |
| 20260507001503 | 65 | 294 | 0.0 | 3.0 | 0.02 | 0.03 | 0.03 | 93 | 1011.9 |
| 20260507000503 | 65 | 34 | 0.0 | 1.0 | 0.01 | 0.02 | 0.02 | 93 | 1012.4 |
| 20260507000005 | 65 | 350 | 0.0 | 1.0 | 0.01 | 0.02 | 0.02 | 92 | 1012.5 |
| 20260506235503 | 65 | 301 | 1.0 | 2.0 | 0.01 | 0.02 | 0.02 | 92 | 1013.0 |
| 20260506235003 | 65 | 301 | 1.0 | 2.0 | 0.01 | 0.02 | 0.02 | 92 | 1012.9 |